Temp
-4 -4 -4 -4 -4 -4 -4 -5 -5 -5 -5 -5 -5 -5 -5 -5 -5 -5 -5 -5 -5 -5 -5 -4 -5 -5 -5 -5 -6 -6 -6 -6 -7 -6 -5 -5 -5 -5 -4 -4 -4 -4 -4 -4 -4
-4 -4 -4 -4 -4 -4 -5 -5 -5 -5 -5 -5 -5 -5 -5 -5 -5 -5 -5 -5 -5 -5 -5 -5 -5 -5 -6 -6 -7 -7 -7 -6 -6 -7 -7 -6 -6 -5 -4 -4 -4 -4 -4 -4 -4
-4 -5 -5 -5 -5 -5 -5 -5 -5 -5 -5 -5 -5 -5 -5 -5 -5 -5 -5 -6 -5 -5 -5 -5 -5 -6 -7 -8 -7 -7 -7 -6 -6 -6 -6 -7 -6 -5 -5 -5 -5 -3 -4 -4 -4
-5 -5 -5 -5 -5 -5 -5 -5 -5 -5 -5 -5 -5 -5 -5 -5 -5 -6 -6 -6 -6 -5 -5 -6 -6 -7 -9 -10 -7 -9 -7 -7 -6 -6 -6 -7 -6 -5 -5 -5 -6 -4 -4 -4 -4
-5 -5 -5 -5 -5 -5 -5 -5 -5 -5 -5 -5 -5 -5 -5 -5 -6 -5 -6 -6 -6 -6 -6 -6 -6 -7 -10 -8 -7 -9 -8 -7 -7 -7 -7 -6 -6 -6 -5 -5 -5 -4 -4 -5 -5
-5 -5 -5 -5 -5 -5 -5 -5 -5 -5 -5 -5 -5 -5 -5 -5 -6 -5 -6 -6 -6 -6 -6 -6 -7 -7 -7 -8 -8 -8 -8 -8 -7 -8 -8 -7 -7 -6 -6 -6 -6 -5 -5 -5 -5
-6 -6 -5 -5 -5 -5 -5 -5 -5 -5 -5 -5 -5 -5 -5 -6 -5 -6 -6 -6 -6 -6 -7 -7 -7 -7 -8 -8 -8 -7 -7 -9 -8 -8 -8 -8 -7 -7 -7 -6 -6 -6 -6 -5 -4
-6 -6 -6 -6 -6 -5 -5 -5 -5 -5 -5 -5 -5 -5 -5 -5 -6 -6 -6 -6 -6 -7 -7 -7 -7 -7 -8 -8 -7 -7 -8 -8 -9 -8 -8 -7 -6 -7 -6 -6 -6 -5 -5 -5 -5
-6 -6 -6 -6 -6 -6 -6 -5 -5 -5 -5 -5 -5 -5 -5 -5 -6 -6 -6 -6 -6 -7 -7 -7 -7 -7 -8 -8 -9 -8 -8 -8 -9 -8 -8 -8 -6 -7 -6 -6 -6 -5 -5 -5 -5
-6 -5 -6 -6 -6 -6 -6 -6 -5 -5 -5 -5 -5 -5 -5 -5 -6 -6 -6 -6 -6 -7 -7 -7 -7 -8 -9 -9 -8 -8 -7 -9 -8 -9 -8 -9 -7 -7 -7 -6 -6 -5 -5 -4 -5
-6 -6 -6 -6 -6 -6 -6 -6 -6 -6 -5 -5 -5 -5 -6 -6 -6 -6 -6 -6 -6 -7 -7 -7 -7 -10 -9 -8 -8 -9 -8 -9 -9 -8 -8 -8 -7 -7 -7 -6 -6 -5 -5 -5 -5
-6 -6 -6 -6 -6 -6 -6 -6 -6 -6 -6 -5 -5 -5 -6 -6 -6 -6 -6 -6 -7 -7 -7 -8 -8 -9 -9 -8 -8 -9 -9 -8 -8 -8 -8 -7 -7 -7 -7 -6 -5 -5 -6 -6 -5
-6 -6 -6 -6 -6 -6 -6 -6 -7 -6 -6 -6 -5 -6 -6 -6 -7 -7 -7 -7 -7 -7 -7 -10 -9 -10 -9 -8 -9 -9 -8 -8 -8 -7 -7 -8 -8 -7 -7 -6 -5 -5 -6 -6 -6
-7 -7 -7 -7 -6 -7 -7 -7 -7 -7 -7 -6 -6 -6 -6 -7 -7 -7 -7 -7 -7 -7 -8 -10 -9 -9 -7 -8 -10 -8 -9 -8 -9 -8 -7 -8 -8 -6 -7 -6 -5 -6 -6 -6 -6
-7 -7 -7 -7 -7 -7 -7 -7 -7 -8 -8 -6 -6 -6 -6 -7 -7 -7 -7 -7 -7 -8 -8 -9 -9 -8 -8 -9 -10 -9 -8 -9 -9 -8 -7 -8 -7 -5 -7 -6 -6 -6 -6 -6 -6
-8 -8 -8 -8 -8 -8 -8 -8 -8 -8 -9 -7 -7 -7 -6 -7 -7 -7 -7 -7 -7 -7 -8 -10 -9 -8 -8 -8 -10 -9 -8 -8 -8 -8 -7 -7 -7 -7 -7 -7 -6 -7 -7 -6 -6
-8 -8 -9 -9 -9 -9 -9 -9 -9 -8 -9 -7 -7 -7 -7 -7 -7 -7 -7 -7 -7 -7 -7 -8 -9 -7 -7 -9 -8 -8 -9 -8 -7 -7 -7 -7 -8 -8 -7 -7 -6 -6 -7 -7 -7
-8 -8 -9 -9 -9 -9 -9 -9 -9 -10 -10 -8 -7 -7 -7 -7 -7 -8 -8 -7 -7 -7 -9 -9 -8 -7 -7 -8 -9 -9 -8 -8 -7 -7 -7 -8 -7 -6 -7 -6 -6 -6 -7 -7 -7
-9 -9 -9 -10 -10 -10 -10 -10 -10 -11 -11 -8 -8 -8 -8 -7 -8 -8 -7 -7 -7 -7 -8 -9 -9 -9 -8 -8 -9 -9 -8 -9 -8 -8 -7 -7 -6 -6 -6 -6 -7 -6 -7 -7 -7
-10 -11 -10 -10 -10 -10 -10 -11 -12 -11 -9 -9 -9 -8 -8 -8 -8 -7 -7 -7 -7 -7 -8 -9 -9 -9 -8 -9 -9 -9 -8 -8 -8 -7 -7 -7 -7 -7 -6 -6 -7 -7 -7 -7 -7
-11 -11 -11 -11 -11 -11 -10 -11 -10 -9 -10 -10 -11 -10 -10 -10 -8 -8 -8 -8 -7 -7 -8 -9 -9 -9 -9 -8 -9 -9 -9 -8 -8 -8 -7 -7 -7 -8 -7 -7 -6 -7 -7 -7 -7
-10 -10 -10 -10 -11 -11 -11 -12 -10 -10 -10 -10 -9 -11 -10 -10 -8 -9 -9 -8 -8 -8 -7 -8 -9 -8 -9 -9 -9 -9 -8 -8 -7 -8 -7 -8 -8 -6 -8 -7 -7 -7 -8 -8 -7
-10 -10 -10 -11 -11 -11 -11 -10 -10 -10 -10 -10 -10 -10 -10 -10 -10 -10 -10 -8 -7 -8 -7 -8 -8 -9 -8 -9 -9 -9 -9 -8 -8 -7 -8 -8 -6 -6 -8 -8 -7 -8 -8 -8 -8
-10 -10 -10 -11 -10 -11 -12 -11 -11 -11 -10 -10 -11 -10 -10 -10 -9 -10 -10 -9 -8 -8 -8 -8 -9 -9 -8 -8 -8 -9 -7 -9 -8 -7 -7 -8 -7 -7 -7 -8 -8 -7 -8 -8 -8
-10 -10 -10 -11 -11 -11 -11 -11 -11 -11 -11 -11 -10 -10 -10 -10 -10 -9 -10 -9 -8 -8 -7 -7 -8 -9 -9 -9 -8 -8 -8 -8 -8 -8 -8 -8 -7 -7 -8 -8 -8 -8 -8 -8 -8
-10 -11 -11 -11 -11 -11 -11 -11 -11 -12 -11 -11 -10 -9 -10 -9 -9 -9 -10 -10 -8 -9 -8 -8 -8 -10 -10 -9 -9 -9 -9 -8 -8 -8 -8 -7 -7 -7 -7 -8 -8 -8 -8 -8 -8
-10 -11 -11 -11 -11 -11 -13 -11 -11 -11 -10 -10 -10 -9 -9 -10 -9 -9 -10 -10 -10 -9 -8 -8 -9 -10 -10 -9 -9 -9 -8 -8 -8 -8 -8 -8 -7 -7 -8 -8 -8 -9 -8 -8 -8
Height
5886 5886 5887 5887 5888 5888 5889 5889 5889 5890 5891 5891 5892 5893 5894 5895 5895 5896 5897 5899 5900 5901 5902 5903 5905 5907 5908 5910 5913 5915 5920 5918 5917 5916 5915 5915 5915 5915 5916 5915 5914 5914 5912 5912 5912
5883 5884 5885 5885 5886 5886 5887 5887 5888 5888 5889 5890 5891 5891 5892 5893 5893 5894 5896 5897 5898 5899 5901 5902 5903 5905 5907 5910 5913 5914 5918 5916 5916 5917 5915 5913 5914 5914 5916 5914 5914 5912 5911 5911 5910
5881 5881 5882 5883 5884 5884 5885 5886 5886 5886 5887 5888 5889 5890 5890 5891 5892 5892 5894 5895 5896 5898 5899 5901 5902 5905 5907 5910 5912 5913 5915 5913 5914 5915 5917 5915 5913 5913 5916 5909 5914 5910 5910 5910 5910
5878 5879 5879 5880 5881 5882 5883 5884 5884 5884 5885 5886 5887 5888 5889 5890 5892 5891 5892 5893 5895 5896 5898 5900 5902 5904 5908 5913 5911 5914 5913 5913 5913 5913 5913 5912 5912 5912 5912 5912 5909 5909 5909 5909 5908
5874 5875 5876 5877 5878 5879 5880 5881 5882 5883 5883 5883 5884 5885 5887 5888 5889 5889 5891 5892 5894 5895 5897 5899 5900 5902 5908 5908 5910 5912 5911 5912 5912 5912 5912 5912 5911 5911 5910 5910 5909 5907 5907 5906 5905
5871 5872 5873 5874 5875 5876 5877 5878 5879 5880 5880 5880 5881 5883 5885 5887 5887 5888 5889 5891 5892 5894 5896 5897 5899 5901 5904 5907 5909 5910 5911 5912 5912 5912 5912 5912 5911 5911 5910 5909 5907 5906 5904 5903 5903
5867 5868 5869 5870 5872 5873 5874 5875 5876 5877 5878 5878 5879 5881 5883 5886 5886 5886 5888 5889 5891 5893 5895 5896 5898 5900 5904 5907 5907 5909 5912 5913 5913 5912 5912 5912 5913 5911 5910 5908 5907 5905 5902 5900 5900
5862 5864 5865 5866 5867 5869 5870 5872 5873 5874 5875 5875 5876 5878 5881 5882 5884 5886 5887 5888 5890 5892 5894 5895 5897 5900 5903 5906 5909 5911 5913 5917 5914 5914 5912 5913 5912 5910 5909 5908 5905 5903 5901 5898 5897
5857 5859 5860 5862 5863 5865 5867 5868 5869 5871 5872 5873 5874 5876 5879 5881 5883 5885 5886 5887 5889 5891 5892 5895 5897 5899 5904 5907 5913 5912 5914 5913 5913 5913 5912 5912 5908 5910 5908 5906 5903 5901 5897 5895 5892
5852 5853 5855 5856 5858 5860 5862 5864 5866 5867 5869 5870 5871 5874 5876 5879 5881 5883 5884 5886 5888 5889 5892 5894 5897 5900 5905 5913 5914 5917 5916 5914 5915 5911 5912 5910 5910 5909 5907 5904 5900 5898 5894 5891 5888
5845 5847 5849 5851 5853 5855 5857 5859 5863 5864 5865 5867 5868 5870 5872 5875 5878 5880 5882 5884 5886 5888 5890 5893 5896 5902 5912 5912 5907 5909 5911 5915 5911 5909 5910 5909 5909 5909 5906 5904 5901 5897 5893 5888 5884
5840 5841 5843 5845 5847 5850 5852 5854 5856 5859 5861 5863 5864 5866 5868 5872 5875 5878 5880 5883 5885 5887 5889 5893 5894 5903 5902 5903 5905 5909 5911 5914 5910 5909 5909 5909 5909 5908 5906 5903 5900 5896 5892 5889 5884
5834 5835 5837 5839 5842 5844 5847 5849 5851 5853 5857 5859 5860 5863 5865 5869 5871 5874 5877 5880 5883 5885 5887 5893 5896 5899 5899 5901 5903 5908 5913 5909 5912 5907 5909 5908 5905 5904 5904 5902 5900 5895 5893 5890 5887
5827 5828 5830 5833 5836 5838 5840 5843 5845 5849 5853 5856 5857 5859 5862 5865 5868 5871 5873 5877 5879 5882 5886 5890 5898 5894 5896 5898 5903 5911 5908 5906 5907 5908 5907 5908 5907 5903 5900 5903 5900 5895 5894 5893 5892
5820 5821 5823 5825 5829 5832 5835 5837 5841 5845 5851 5849 5852 5857 5859 5864 5865 5869 5871 5874 5877 5880 5883 5888 5890 5891 5893 5897 5901 5907 5902 5905 5908 5909 5912 5909 5906 5867 5900 5901 5899 5896 5895 5895 5894
5814 5816 5818 5820 5823 5826 5829 5832 5837 5842 5845 5843 5849 5852 5855 5858 5862 5864 5868 5872 5874 5877 5880 5885 5887 5889 5892 5894 5897 5901 5901 5904 5906 5908 5910 5907 5906 5897 5896 5902 5899 5897 5897 5896 5896
5808 5810 5812 5815 5818 5820 5824 5828 5833 5837 5837 5842 5844 5848 5852 5855 5858 5861 5865 5869 5872 5876 5878 5880 5884 5885 5888 5891 5894 5897 5902 5906 5907 5910 5905 5904 5903 5899 5897 5900 5898 5898 5898 5898 5898
5800 5803 5806 5809 5812 5815 5819 5824 5828 5835 5837 5837 5841 5844 5848 5852 5855 5858 5861 5865 5869 5873 5878 5878 5881 5884 5887 5889 5896 5897 5903 5896 5897 5898 5899 5900 5905 5897 5900 5899 5897 5898 5899 5899 5899
5792 5795 5799 5803 5806 5810 5815 5819 5827 5833 5834 5834 5838 5842 5845 5848 5853 5856 5859 5863 5867 5870 5875 5879 5881 5884 5883 5887 5891 5897 5901 5892 5896 5901 5900 5886 5895 5899 5897 5895 5897 5898 5899 5900 5901
5787 5789 5793 5797 5801 5805 5810 5816 5822 5820 5825 5830 5836 5839 5843 5846 5850 5854 5858 5861 5864 5867 5870 5879 5882 5883 5882 5885 5888 5891 5899 5900 5896 5899 5899 5897 5898 5898 5896 5895 5897 5898 5899 5900 5901
5783 5786 5788 5791 5795 5800 5807 5812 5813 5819 5823 5829 5837 5837 5842 5846 5848 5852 5856 5859 5861 5864 5867 5871 5879 5882 5882 5881 5887 5890 5890 5894 5897 5898 5896 5889 5888 5879 5896 5896 5897 5896 5898 5899 5901
5781 5783 5784 5787 5793 5798 5803 5808 5811 5816 5820 5825 5828 5835 5839 5845 5846 5850 5853 5855 5858 5861 5864 5869 5874 5882 5881 5882 5885 5890 5893 5895 5898 5897 5894 5891 5880 5889 5893 5896 5895 5893 5894 5897 5899
5781 5781 5783 5786 5791 5796 5800 5804 5810 5814 5819 5824 5828 5832 5836 5840 5844 5847 5849 5851 5854 5857 5861 5865 5869 5878 5882 5883 5885 5883 5886 5890 5893 5895 5889 5891 5876 5879 5890 5894 5894 5893 5893 5896 5897
5781 5782 5784 5786 5790 5792 5799 5804 5808 5812 5816 5819 5825 5829 5834 5839 5840 5845 5847 5847 5850 5854 5857 5861 5866 5874 5881 5883 5884 5882 5881 5883 5887 5890 5888 5886 5884 5886 5888 5889 5891 5892 5893 5894 5895
5780 5781 5783 5786 5789 5792 5795 5800 5806 5810 5815 5819 5824 5828 5832 5837 5839 5839 5842 5843 5847 5849 5853 5857 5862 5867 5872 5870 5875 5877 5877 5884 5883 5885 5887 5882 5876 5872 5872 5881 5886 5889 5889 5891 5892
5779 5780 5782 5784 5787 5791 5795 5800 5804 5808 5811 5817 5822 5824 5829 5831 5827 5834 5840 5841 5842 5846 5850 5854 5858 5862 5866 5872 5874 5874 5877 5878 5879 5881 5881 5879 5880 5859 5859 5875 5881 5885 5886 5886 5887
5777 5779 5781 5783 5787 5792 5796 5796 5801 5804 5809 5797 5808 5810 5820 5824 5814 5800 5827 5839 5839 5843 5846 5850 5855 5860 5863 5868 5871 5870 5872 5876 5878 5879 5881 5864 5855 5844 5863 5875 5879 5880 5881 5881 5882
Wind_Speed
12 12 11 10 6 7 6 8 9 9 8 8 7 7 7 8 8 8 7 7 8 7 7 8 8 7 6 6 7 5 10 1 5 4 6 7 8 8 9 13 9 9 10 11 12
13 13 13 12 10 8 8 8 8 10 10 9 9 8 8 6 7 7 8 7 8 8 7 8 8 7 8 7 7 8 8 8 5 2 7 4 6 7 2 9 10 9 10 10 11
14 13 13 14 12 10 9 8 9 9 9 10 10 9 8 7 6 7 9 9 10 9 9 8 7 7 7 7 8 11 12 4 4 6 9 10 8 6 6 17 5 10 10 10 10
15 15 14 14 14 13 9 11 9 10 13 13 12 10 9 7 5 9 8 10 10 9 8 8 9 10 8 7 11 6 6 4 5 7 8 8 9 9 7 13 9 10 9 10 10
17 16 15 14 15 14 13 10 11 10 11 12 14 11 9 9 8 9 9 10 10 9 9 9 10 12 7 15 15 8 4 4 3 5 6 7 8 9 10 11 12 14 12 14 14
18 18 16 16 15 15 15 12 11 12 10 11 12 12 10 9 9 8 9 11 11 10 10 10 11 11 14 19 15 13 9 5 5 8 8 8 8 9 11 13 15 16 16 16 17
20 19 19 18 16 16 16 15 13 12 10 10 12 12 11 8 8 8 9 11 11 11 12 11 13 18 15 14 17 14 7 4 9 11 10 9 9 11 11 13 15 17 19 21 21
22 22 21 20 19 17 16 16 15 13 12 10 11 14 11 12 9 8 9 10 11 13 13 14 15 14 16 12 9 6 4 5 11 13 11 9 11 9 12 15 17 18 20 21 21
22 23 22 22 21 20 18 16 16 15 12 10 12 15 13 12 11 9 9 10 12 14 14 14 16 17 12 5 0 7 13 14 1 13 10 9 14 11 14 17 19 20 23 23 21
21 21 22 23 23 23 21 19 17 17 15 13 11 16 17 14 12 11 9 10 12 16 16 16 16 14 7 5 12 12 4 8 9 16 10 9 13 14 16 19 21 21 25 24 15
21 21 21 21 21 22 23 22 21 19 18 15 13 14 17 17 16 14 12 12 14 18 17 16 17 12 9 15 20 7 24 8 18 12 11 13 15 16 19 19 19 21 22 19 11
21 21 21 22 22 22 22 23 22 21 19 19 17 14 19 18 17 17 16 14 17 18 19 17 18 14 20 23 23 17 10 6 18 13 11 12 13 14 17 18 18 18 13 14 7
22 22 22 23 23 23 21 22 23 22 21 20 18 16 17 20 20 19 19 17 18 21 20 17 15 19 24 20 19 13 11 10 12 13 10 11 11 7 12 16 14 10 6 9 12
24 24 24 24 24 23 23 23 24 22 21 22 21 18 17 20 21 22 21 20 22 21 21 21 17 24 18 20 16 11 20 20 16 4 16 7 13 12 8 12 9 7 4 5 6
23 23 23 23 23 23 24 24 23 22 18 27 24 18 20 19 21 21 23 22 24 22 25 21 23 18 19 17 16 14 21 16 10 7 7 10 9 5 8 6 7 7 5 3 3
19 18 17 19 22 23 24 24 24 24 22 28 22 23 21 23 20 23 23 23 24 25 24 21 21 23 20 17 22 21 18 13 4 4 12 9 6 26 8 6 4 5 6 3 1
22 21 19 16 18 23 23 25 25 24 30 24 23 23 21 22 21 21 22 23 23 21 21 24 22 23 22 20 21 20 13 11 13 10 21 6 6 11 4 5 4 4 4 4 3
24 25 25 23 18 22 25 26 27 21 16 27 23 23 23 23 23 22 22 23 22 20 17 22 23 15 18 18 15 16 14 27 20 20 22 2 4 9 13 9 5 1 4 3 1
21 22 23 25 22 22 27 26 16 13 19 23 23 22 24 25 23 23 22 22 21 18 18 17 18 18 20 19 25 13 18 26 12 7 16 23 6 10 12 10 8 4 2 1 1
14 19 21 24 24 24 29 25 20 34 26 22 21 23 25 25 24 23 22 21 20 19 20 13 19 18 21 21 22 19 13 19 8 13 12 20 2 14 4 4 5 4 2 3 2
10 13 18 22 24 27 29 28 29 23 23 24 16 18 19 20 21 20 21 20 20 21 22 17 19 17 20 25 19 19 22 14 13 19 24 17 21 20 6 5 3 11 8 4 4
4 13 16 18 22 26 29 26 27 24 23 24 27 16 19 19 22 18 19 21 20 22 20 20 18 18 19 18 18 17 18 17 17 20 21 12 22 8 2 5 6 4 13 6 5
3 6 13 18 23 25 30 28 23 23 23 22 19 18 16 18 22 20 19 21 21 22 21 23 25 21 14 14 24 25 22 20 20 18 25 19 21 8 6 9 3 2 6 3 4
6 7 11 19 21 26 24 24 22 22 24 26 24 22 15 12 18 15 17 23 19 22 23 25 24 20 18 16 20 19 17 20 22 24 27 22 20 25 22 15 11 9 8 5 5
8 10 12 17 20 23 24 27 25 23 23 22 20 20 17 14 16 21 20 22 20 21 23 26 27 23 22 15 20 21 11 18 23 25 22 23 19 30 21 17 15 15 13 10 11
9 12 14 17 19 22 22 20 23 22 24 22 21 22 23 22 27 22 16 20 17 19 21 25 25 22 20 22 19 19 17 17 21 22 27 34 38 46 9 9 15 16 19 20 18
9 13 14 14 17 19 16 26 26 24 25 26 33 24 23 29 16 12 17 13 12 13 17 21 23 17 20 21 22 25 17 15 18 16 20 18 20 17 17 14 18 17 17 18 20
Wind_Direction
261 258 256 251 249 281 280 279 258 249 249 255 256 255 258 257 255 240 239 224 218 213 211 205 202 194 189 200 168 163 95 87 176 315 250 219 239 234 222 235 241 245 252 251 249
258 260 257 254 244 252 274 279 263 254 253 257 261 263 261 261 255 242 227 216 216 207 211 212 212 196 194 196 171 163 212 208 262 253 280 199 203 205 295 294 279 279 283 272 266
256 258 257 254 250 241 261 285 269 259 256 258 263 264 265 264 247 216 217 206 211 207 199 203 203 194 196 185 173 175 214 173 208 217 150 242 230 235 190 250 264 265 271 274 271
254 254 256 255 253 246 246 268 283 270 260 258 254 261 260 256 241 221 206 206 212 208 202 194 189 186 172 159 164 141 158 185 221 226 228 233 252 265 263 290 296 286 295 287 278
256 254 254 256 252 251 247 256 271 294 268 261 249 249 252 247 226 227 206 206 207 206 201 196 196 181 175 159 161 145 157 156 190 208 225 245 257 274 286 283 288 294 286 276 266
254 253 253 254 254 249 250 249 267 271 284 261 242 237 241 237 229 227 210 202 208 203 197 198 196 184 166 160 149 210 177 169 197 194 220 236 255 275 287 297 303 302 299 296 286
253 251 253 254 254 252 249 246 254 269 286 260 240 231 236 225 223 221 212 209 209 193 195 193 183 173 175 177 193 193 190 172 204 206 216 239 282 280 297 305 309 306 314 314 301
254 252 254 251 251 253 251 250 246 257 266 265 238 226 230 227 220 210 196 197 199 187 198 194 184 182 179 195 201 204 165 198 225 219 227 247 283 299 302 307 312 315 317 317 303
254 253 252 253 252 251 252 250 247 245 259 268 239 224 226 229 222 216 205 200 194 191 195 190 191 182 193 162 25 118 162 262 250 233 248 252 293 303 312 312 313 316 316 319 303
254 254 254 252 252 251 250 250 250 244 244 253 246 230 227 226 222 216 210 205 193 191 199 195 190 180 163 163 196 197 265 226 215 249 245 278 288 303 310 313 315 317 318 323 303
256 254 254 253 252 250 249 247 245 242 239 244 245 232 223 221 217 211 203 201 193 193 198 198 189 189 193 223 223 174 200 197 261 236 254 274 297 306 305 304 313 315 322 326 295
254 254 255 254 253 250 248 247 244 238 237 234 242 236 225 219 215 213 211 202 195 195 200 203 202 179 227 219 226 210 206 210 262 250 254 299 308 310 312 304 313 317 332 343 341
258 256 254 254 253 250 245 243 242 237 236 233 233 235 228 218 209 205 208 203 195 200 204 199 223 181 232 225 206 198 196 247 244 265 271 291 292 274 316 304 312 328 341 19 48
260 258 253 248 246 244 241 237 235 231 231 231 228 227 223 211 209 208 208 200 197 201 203 209 198 224 223 208 193 203 235 230 223 229 262 327 291 334 334 300 329 347 351 38 66
254 252 249 245 240 236 232 230 229 223 219 230 225 223 222 212 213 215 218 209 201 204 204 219 206 235 215 209 215 205 239 212 235 253 291 285 245 197 344 321 354 3 353 26 61
246 246 243 239 235 231 228 222 222 217 214 231 220 218 215 213 215 213 215 213 209 210 216 214 227 223 211 213 213 202 220 214 262 211 238 251 330 281 136 325 357 5 6 4 132
249 246 241 238 234 227 221 218 216 211 225 227 217 218 214 214 210 213 215 214 214 219 225 222 220 223 212 209 210 209 198 212 208 227 251 259 315 245 41 332 338 22 13 9 47
250 244 237 233 230 225 217 214 213 210 234 226 218 212 210 211 209 205 208 207 208 214 219 227 228 230 222 209 205 213 207 245 181 217 241 160 264 306 308 288 290 44 55 29 30
251 237 229 226 222 220 212 210 206 228 212 212 214 211 208 208 209 208 206 208 213 216 202 231 226 249 219 201 184 208 226 256 220 243 280 254 167 296 312 280 225 217 155 73 104
244 226 221 220 219 217 207 191 204 209 207 200 207 209 211 213 208 204 208 211 214 214 203 212 221 219 215 205 206 213 210 233 261 284 245 252 212 269 334 111 196 265 236 211 175
224 216 217 219 215 209 202 200 215 210 205 193 181 218 208 208 208 208 216 223 222 220 217 201 199 226 208 213 209 218 202 222 234 245 214 262 201 130 129 126 239 241 221 227 240
217 215 212 208 204 198 199 200 206 202 201 200 198 191 206 209 211 208 208 220 219 221 220 212 195 208 225 224 217 216 240 232 229 252 263 227 300 344 130 297 328 332 239 212 213
222 205 205 194 187 196 201 208 204 201 197 197 196 198 200 203 208 208 219 227 222 220 217 203 199 192 215 223 222 232 216 215 225 240 251 237 251 147 222 266 255 103 105 149 201
214 196 191 189 198 192 205 202 201 203 206 197 188 191 184 189 199 216 210 229 224 221 216 208 202 196 216 215 242 256 244 237 224 224 247 227 272 277 252 239 243 249 220 215 240
204 201 194 196 201 200 202 199 200 201 202 202 201 195 199 194 207 213 208 228 228 226 218 211 212 209 210 245 225 231 226 247 243 226 233 251 214 231 192 216 254 254 253 252 279
202 199 197 204 206 202 201 202 200 197 198 202 199 196 207 201 187 200 209 215 221 229 221 216 218 220 222 220 244 241 242 234 242 234 237 226 237 230 337 221 254 247 245 259 268
200 200 200 200 199 195 208 206 199 204 196 201 193 218 197 213 237 231 175 202 226 228 222 220 215 221 234 225 229 244 216 239 235 234 234 282 284 357 304 261 258 256 250 255 254